User: anonymous   Login
Location: Bothwell
(42.3833°S, 147.0000°E)
Time: 04:52:45
(UTC+10:00)
Language:

Oscar 19 - Orbit

View from above orbital plane
View from above orbital plane
View from above satellite
View from above satellite

Ground track
Ground track

The orbit data is extracted from the following two-line orbital elements,

1 20442U 90005G   22267.45444128  .00000117  00000-0  59508-4 0  9997
2 20442  98.8056 233.8809 0010769 235.6152 124.4014 14.33087559707285
Epoch (UTC): 24 September 2022 10:54:23
Eccentricity: 0.0010769
inclination: 98.8056°
perigee height: 774 km
apogee height: 789 km
right ascension of ascending node: 233.8809°
argument of perigee: 235.6152°
revolutions per day: 14.33087559
mean anomaly at epoch: 124.4014°
orbit number at epoch: 70728

The dashed part of the orbit path shows where the satellite is in the earth's shadow,  

DLR